Location: Drocourt
(49.0571°N, 1.7669°E)
Time: 11:43:04
(UTC+00:00)

COSMOS 2428 - Pass Details

Date: 09 February 2023
Orbit: 843 x 858 km, 70.9° (Epoch: 24 March)

Event Time Altitude Azimuth Distance (km) Brightness Sun altitude
Rises 18:55:38 0° 210° (SSW) 3,390 6.3 -18.9°
Reaches altitude 10° 18:58:04 10° 211° (SSW) 2,458 5.5 -19.3°
Maximum altitude 19:03:44 81° 299° (WNW) 860 2.7 -20.2°
Enters shadow 19:09:08 11° 27° (NNE) 2,369 4.8 -21.1°
